Location: Unspecified
(0.0000°N, 0.0000°E)
Time: 18:39:58
(UTC+00:00)

Kosmos-2168 - Visible Passes

Search period start: 06 December 2025 00:00
Search period end: 16 December 2025 00:00
Orbit: 1389 x 1411 km, 82.6° (Epoch: 05 December)

Date Brightness Start Highest point End Pass type
(mag) Time Alt. Az. Time Alt. Az. Time Alt. Az.
06 Dec 10.5 04:19:03 10° NNE 04:26:01 30° E 04:32:59 10° SE visible
06 Dec 11.1 18:34:57 10° SW 18:40:33 20° W 18:46:09 10° NW visible
07 Dec 9.1 04:57:55 10° N 05:06:10 74° E 05:14:27 10° S visible
08 Dec 11.0 03:46:31 10° NE 03:52:01 19° E 03:57:31 10° SE visible
09 Dec 9.6 04:24:15 10° NNE 04:32:09 50° E 04:40:06 10° SSE visible
09 Dec 11.7 18:46:13 10° W 18:46:43 10° W 18:47:13 10° W visible
10 Dec 11.3 03:15:41 10° ENE 03:18:01 11° E 03:20:21 10° ESE visible
10 Dec 8.8 05:04:05 10° N 05:12:19 72° W 05:20:38 10° S visible
11 Dec 10.2 03:50:59 10° NNE 03:58:10 33° E 04:05:23 10° SSE visible
11 Dec 11.2 18:07:34 10° SW 18:12:42 18° W 18:17:52 10° NW visible
12 Dec 8.9 04:30:03 10° N 04:38:19 80° E 04:46:40 10° S visible
13 Dec 10.7 03:18:16 10° NE 03:24:11 22° E 03:30:06 10° SE visible
13 Dec 9.1 05:10:45 10° NNW 05:18:29 44° W 05:26:18 10° SSW visible
14 Dec 9.4 03:56:18 10° NNE 04:04:20 54° E 04:12:24 10° SSE visible
15 Dec 11.1 02:46:47 10° ENE 02:50:11 13° E 02:53:35 10° ESE visible
15 Dec 8.7 04:36:18 10° NNW 04:44:29 66° W 04:52:45 10° S visible
